Regional Weather Roundup
Issued by NWS Upton, NY

Current Version | Previous Version | Graphics & Text | Print | Product List | Glossary Off
Versions: 1 2 3 4 5 6 7 8 9 10 11 12 13 14 15 16 17 18 19 20 21 22 23 24 25 26 27 28 29 30 31 32 33 34 35 36 37 38 39 40 41 42 43 44 45 46 47 48 49 50

000
ASUS41 KOKX 250808
RWROKX

REGIONAL WEATHER ROUNDUP
NATIONAL WEATHER SERVICE NEW YORK NY
400 AM EDT MON MAY 25 2015

NOTE: "FAIR" INDICATES FEW OR NO CLOUDS BELOW 12,000 FEET WITH NO
SIGNIFICANT WEATHER AND/OR OBSTRUCTIONS TO VISIBILITY.

NYZ071-072-176-178-NJZ106-104-250900-
NEW YORK CITY METRO AREA


CITY           SKY/WX    TMP DP  RH WIND       PRES   REMARKS
CENTRAL PARK   CLEAR     65  52  62 W6        30.28S
LAGUARDIA APRT PTCLDY    65  51  60 S6        30.25S
KENNEDY INTL   PTCLDY    58  52  80 S5        30.27S
NEWARK/LIBERTY MOCLDY    62  52  69 SW7       30.26S
BRNX BOT. GARD   N/A     64  50  59 SW1       30.26F
TETERBORO      CLEAR     61  50  67 CALM      30.25R
$$

NYZ177-179-078>081-250900-
LONG ISLAND NEW YORK

CITY           SKY/WX    TMP DP  RH WIND       PRES   REMARKS
FARMINGDALE    CLEAR     56  53  90 S5        30.27R
ISLIP          CLEAR     57  53  86 SW6       30.25S
SHIRLEY        CLEAR     59  54  83 SW5       30.28R
WESTHAMPTON    CLEAR     57  53  86 SW7       30.28S
MONTAUK POINT    N/A     58  51  78 SW10      30.27S
$$

NYZ052-065-067-250900-
HUDSON VALLEY

CITY           SKY/WX    TMP DP  RH WIND       PRES   REMARKS
WHITE PLAINS   PTCLDY    60  51  72 CALM      30.25S
NEWBURGH       CLEAR     61  52  72 CALM      30.25R
MONTGOMERY     CLOUDY    57  52  83 CALM      30.24R
POUGHKEEPSIE   MOCLDY    58  52  80 CALM      30.23R
ALBANY         CLOUDY    63  44  50 S5        30.20R
$$

NJZ001-105-106-008-010-013-015-019>022-104-250900-
NEW JERSEY

CITY           SKY/WX    TMP DP  RH WIND       PRES   REMARKS
NEWARK/LIBERTY MOCLDY    62  52  69 SW7       30.26S
TETERBORO      CLEAR     61  50  67 CALM      30.25R
CALDWELL       CLEAR     62  50  64 CALM      30.26R
MORRISTOWN     PTCLDY    59  52  77 CALM      30.26S
SOMERVILLE     PTCLDY    53  49  86 CALM      30.24S
SUSSEX         CLOUDY    56  48  74 CALM      30.27R
ANDOVER          N/A     58  53  84 CALM      30.26R
TRENTON        MOCLDY    59  53  80 S3        30.26R
MILLVILLE      PTCLDY    61  56  83 CALM      30.28R
ATLANTIC CITY  MOCLDY    60  55  83 S6        30.28S
WRIGHTSTOWN    MOCLDY    58  53  85 SW5       30.25R
TOMS RIVER     MOCLDY   N/A N/A N/A SW6       30.28R
BELMAR         MOCLDY    59  48  67 SW5       30.27S
$$

PAZ047>061-062-071-250900-
EASTERN PENNSYLVANIA

CITY           SKY/WX    TMP DP  RH WIND       PRES   REMARKS
PHILADELPHIA   CLOUDY    65  56  72 S6        30.27S
ALLENTOWN      MOCLDY    59  47  64 CALM      30.25S
SCRANTON       CLOUDY    65  46  50 CALM      30.24R
$$

CTZ002-004>006-009-010-012-RIZ004-006-007-MAZ004-011-015-250900-
SOUTHERN NEW ENGLAND
 IN CT

CITY           SKY/WX    TMP DP  RH WIND       PRES   REMARKS
BRADLEY INTL   CLOUDY    58  50  75 S6        30.23R
HARTFORD       CLOUDY    59  50  72 S6        30.24S
DANBURY        PTCLDY    54  49  83 CALM      30.26S
WTRBRY/OXFORD  MOCLDY    57  48  72 CALM      30.28R
BRIDGEPORT     CLEAR     58  53  84 SW5       30.26R
MERIDEN        MOCLDY    55  50  83 CALM      30.25S
NEW HAVEN      PTCLDY    55  50  83 CALM      30.26R
CHESTER        FAIR      57  52  82 W7        30.26R
GROTON         PTCLDY    53  49  86 SW3       30.25S
WILLIMANTIC    MOCLDY    53  49  86 CALM      30.25S

 IN RI

CITY           SKY/WX    TMP DP  RH WIND       PRES   REMARKS
PROVIDENCE     MOCLDY    56  48  74 S6        30.25R
BLOCK ISLAND   PTCLDY    54  48  82 SW14      30.26S
WESTERLY       MOCLDY    52  49  89 CALM      30.26S

 IN MA

CITY           SKY/WX    TMP DP  RH WIND       PRES   REMARKS
BOSTON         CLOUDY    60  50  69 S8        30.22R
WORCESTER      CLOUDY    58  47  66 W9        30.24R
WESTFIELD      CLOUDY    56  50  80 CALM      30.23
PROVINCETOWN   CLOUDY    55  48  76 S12       30.24S
NANTUCKET      MOCLDY    55  52  89 SW13      30.28S
$$

ANZ330-335-338-340-345-350-353-355-250900-
COASTAL MARINE OBSERVATIONS


STATION/POSITION TIME  SKY/WX   TEMP    WIND        PRES    VSBY  WAVE
                                AIR SEA DIR/SP/G                  HT/PER
                 (UTC)          (F)     (DEG/KT/KT) (MB)    (MI)  (FT/S)
NY HARB ENTRANCE 0750            58 56  210/  8/ 10 1024.5          2/ 5
4S FIRE IS       0703               53                N/A           3/ 5
20S FIRE ISLAND  0750            58 55  220/ 12/ 14 1024.9          3/ 5
GREAT SOUTH BAY  0700            60 63  240/ 12/ 16   N/A
23SW MTP         0750            55 53  220/  8/  8 1025.0          3/ 5
HUDSON CANYON    NOT AVBL
KINGS POINT      0700            61 55  170/  5/  7 1023.8
CENTRAL LI SOUND 0730            57 52  220/  4/  4   N/A
EASTERN LI SOUND 0700            53     210/  2/  4   N/A
ROBBINS REEF     0700            62     250/  4/  5 1023.4
$$


>>>>>>>>>>>>>>>>>>>>>>>>>>>> KEY <<<<<<<<<<<<<<<<<<<<<<<<<<<
>                                                          <
>     SKY/WX - SKY CONDITION/PRESENT WEATHER               <
>     TMP    - TEMPERATURE IN FAHRENHEIT                   <
>     DP     - DEWPOINT IN FAHRENHEIT                      <
>     RH     - RELATIVE HUMIDITY IN PERCENT                <
>     WIND   - DIRECTION AND SPEED IN MPH                  <
>     PRES   - MEAN SEA LEVEL PRESSURE IN INCHES OF HG     <
>     WCI    - WIND CHILL INDEX                            <
>     VSB    - VISIBILITY IN MILES                         <
>     HX     - HEAT INDEX                                  <
>     TC     - TEMPERATURE IN CELSIUS                      <
>     VRB    - VARIABLE WIND DIRECTION                     <
>                                                          <
>>>>>>>>>>>>>>>>>>>>>>>>>>>> KEY <<<<<<<<<<<<<<<<<<<<<<<<<<<





USA.gov is the U.S. government's official web portal to all federal, state and local government web resources and services.